| time (UTC) | temp C | wind direction | speed KPH | gust KPH | rain 1hr cm | rain 24hr cm | rain mn cm | humidity % | barometer mb |
| 20260509123727 | 8 | 29 | 3.2 | 6.4 | 0.00 | 0.46 | 0.46 | 99 | 1010.3 |
| 20260509122725 | 8 | 14 | 3.2 | 6.4 | 0.00 | 0.46 | 0.46 | 99 | 1010.4 |
| 20260509121724 | 7 | 33 | 4.8 | 6.4 | 0.05 | 0.46 | 0.46 | 99 | 1010.6 |
| 20260509120720 | 7 | 354 | 0.0 | 4.8 | 0.00 | 0.46 | 0.46 | 99 | 1010.5 |
| 20260509115721 | 7 | 17 | 1.6 | 4.8 | 0.00 | 0.46 | 0.46 | 99 | 1010.5 |
| 20260509114716 | 7 | 32 | 3.2 | 6.4 | 0.05 | 0.46 | 0.46 | 99 | 1010.8 |
| 20260509113713 | 7 | 347 | 3.2 | 4.8 | 0.00 | 0.43 | 0.43 | 99 | 1010.6 |
| 20260509112712 | 7 | 10 | 3.2 | 6.4 | 0.00 | 0.43 | 0.43 | 99 | 1010.7 |
| 20260509111712 | 7 | 10 | 4.8 | 4.8 | 0.00 | 0.43 | 0.43 | 99 | 1010.7 |
| 20260509110712 | 7 | 88 | 3.2 | 6.4 | 0.00 | 0.43 | 0.43 | 99 | 1010.5 |
| 20260509105707 | 7 | 34 | 1.6 | 6.4 | 0.00 | 0.43 | 0.43 | 99 | 1010.7 |
| 20260509104707 | 7 | 18 | 4.8 | 6.4 | 0.00 | 0.43 | 0.43 | 99 | 1010.5 |
| 20260509103701 | 7 | 11 | 1.6 | 4.8 | 0.00 | 0.43 | 0.43 | 99 | 1010.6 |
| 20260509102657 | 7 | 44 | 3.2 | 4.8 | 0.00 | 0.43 | 0.43 | 99 | 1010.7 |
| 20260509101655 | 7 | 4 | 3.2 | 6.4 | 0.00 | 0.43 | 0.43 | 99 | 1010.7 |
| 20260509100650 | 7 | 12 | 4.8 | 6.4 | 0.05 | 0.43 | 0.43 | 99 | 1010.7 |
| 20260509095649 | 7 | 7 | 4.8 | 6.4 | 0.05 | 0.43 | 0.43 | 99 | 1010.7 |
| 20260509094648 | 7 | 23 | 4.8 | 6.4 | 0.00 | 0.43 | 0.43 | 99 | 1010.4 |
| 20260509093644 | 7 | 63 | 3.2 | 4.8 | 0.00 | 0.43 | 0.43 | 99 | 1010.7 |
| 20260509092644 | 7 | 80 | 3.2 | 6.4 | 0.05 | 0.43 | 0.43 | 99 | 1010.8 |
| 20260509091641 | 7 | 35 | 3.2 | 4.8 | 0.18 | 0.41 | 0.41 | 99 | 1010.9 |
| 20260509090640 | 7 | 29 | 3.2 | 4.8 | 0.30 | 0.38 | 0.38 | 99 | 1010.8 |
| 20260509085641 | 7 | 330 | 1.6 | 4.8 | 0.00 | 0.33 | 0.33 | 99 | 1010.8 |
| 20260509084640 | 7 | 16 | 3.2 | 4.8 | 0.00 | 0.33 | 0.33 | 99 | 1010.7 |
| 20260509083640 | 7 | 33 | 0.0 | 3.2 | 0.00 | 0.33 | 0.33 | 99 | 1010.7 |
| 20260509082639 | 7 | 35 | 3.2 | 4.8 | 0.00 | 0.33 | 0.33 | 99 | 1010.9 |
| 20260509081639 | 7 | 5 | 1.6 | 4.8 | 0.00 | 0.33 | 0.33 | 99 | 1010.9 |
| 20260509080634 | 7 | 35 | 0.0 | 4.8 | 0.05 | 0.33 | 0.33 | 99 | 1011.0 |
| 20260509075630 | 7 | 61 | 3.2 | 4.8 | 0.05 | 0.33 | 0.33 | 99 | 1011.2 |
| 20260509074630 | 7 | 27 | 3.2 | 4.8 | 0.05 | 0.30 | 0.30 | 99 | 1011.4 |
| 20260509073629 | 7 | 10 | 3.2 | 4.8 | 0.13 | 0.30 | 0.30 | 99 | 1011.3 |
| 20260509072628 | 7 | 0 | 3.2 | 4.8 | 0.13 | 0.28 | 0.28 | 99 | 1011.5 |
| 20260509071627 | 7 | 7 | 3.2 | 4.8 | 0.13 | 0.25 | 0.25 | 99 | 1011.5 |
| 20260509070622 | 7 | 41 | 1.6 | 4.8 | 0.13 | 0.23 | 0.23 | 99 | 1011.7 |
| 20260509065619 | 7 | 91 | 3.2 | 4.8 | 0.05 | 0.20 | 0.20 | 99 | 1011.7 |
| 20260509064619 | 7 | 283 | 3.2 | 4.8 | 0.18 | 0.20 | 0.20 | 99 | 1012.0 |
| 20260509063619 | 7 | 247 | 3.2 | 4.8 | 0.13 | 0.18 | 0.18 | 99 | 1012.1 |
| 20260509062619 | 7 | 220 | 3.2 | 4.8 | 0.13 | 0.15 | 0.15 | 99 | 1011.9 |
| 20260509061619 | 7 | 93 | 1.6 | 6.4 | 0.13 | 0.13 | 0.13 | 99 | 1011.9 |
| 20260509060614 | 7 | 116 | 3.2 | 6.4 | 0.23 | 0.10 | 0.10 | 99 | 1011.9 |
| 20260509055611 | 7 | 154 | 3.2 | 4.8 | 0.18 | 0.08 | 0.08 | 99 | 1011.7 |
| 20260509054610 | 7 | 115 | 4.8 | 4.8 | 0.05 | 0.05 | 0.05 | 99 | 1011.9 |
| 20260509053606 | 7 | 99 | 3.2 | 4.8 | 0.05 | 0.05 | 0.05 | 99 | 1012.3 |
| 20260509052601 | 7 | 178 | 3.2 | 4.8 | 0.00 | 0.03 | 0.03 | 99 | 1012.3 |
| 20260509051556 | 7 | 107 | 0.0 | 3.2 | 0.05 | 0.03 | 0.03 | 99 | 1012.1 |
| 20260509050555 | 7 | 135 | 0.0 | 4.8 | 0.05 | 0.03 | 0.03 | 99 | 1012.1 |
| 20260509045550 | 7 | 112 | 1.6 | 3.2 | 0.00 | 0.00 | 0.00 | 99 | 1011.9 |
| 20260509044550 | 7 | 183 | 1.6 | 3.2 | 0.00 | 0.00 | 0.00 | 98 | 1011.8 |
| 20260509043549 | 7 | 180 | 1.6 | 4.8 | 0.00 | 0.00 | 0.00 | 98 | 1012.1 |
| 20260509042547 | 7 | 196 | 1.6 | 4.8 | 0.00 | 0.00 | 0.00 | 97 | 1011.7 |
| 20260509041546 | 7 | 203 | 3.2 | 8.0 | 0.00 | 0.00 | 0.00 | 97 | 1011.6 |
| 20260509040542 | 7 | 180 | 8.0 | 9.7 | 0.00 | 0.00 | 0.00 | 96 | 1011.9 |
| 20260509035541 | 7 | 192 | 3.2 | 8.0 | 0.00 | 0.25 | 0.25 | 96 | 1012.3 |
| 20260509034536 | 7 | 215 | 8.0 | 14.5 | 0.00 | 0.25 | 0.25 | 96 | 1012.3 |
| 20260509033535 | 7 | 163 | 3.2 | 3.2 | 0.00 | 0.25 | 0.25 | 97 | 1012.4 |
| 20260509032535 | 7 | 138 | 3.2 | 3.2 | 0.00 | 0.25 | 0.25 | 97 | 1012.0 |
| 20260509031535 | 7 | 169 | 3.2 | 4.8 | 0.00 | 0.25 | 0.25 | 96 | 1012.1 |
| 20260509030531 | 7 | 136 | 1.6 | 3.2 | 0.00 | 0.25 | 0.25 | 95 | 1012.0 |
| 20260509025529 | 7 | 212 | 3.2 | 6.4 | 0.00 | 0.25 | 0.25 | 94 | 1011.9 |
| 20260509024526 | 7 | 119 | 3.2 | 8.0 | 0.00 | 0.25 | 0.25 | 94 | 1012.1 |
| 20260509023526 | 7 | 179 | 4.8 | 6.4 | 0.00 | 0.25 | 0.25 | 94 | 1012.1 |
| 20260509022525 | 7 | 202 | 6.4 | 11.3 | 0.00 | 0.25 | 0.25 | 93 | 1012.1 |
| 20260509021520 | 7 | 204 | 4.8 | 6.4 | 0.00 | 0.25 | 0.25 | 94 | 1011.9 |
| 20260509020515 | 7 | 96 | 3.2 | 6.4 | 0.00 | 0.25 | 0.25 | 94 | 1012.0 |
| 20260509015511 | 7 | 152 | 3.2 | 4.8 | 0.00 | 0.25 | 0.25 | 94 | 1012.0 |
| 20260509014510 | 7 | 186 | 3.2 | 4.8 | 0.00 | 0.25 | 0.25 | 93 | 1012.0 |
| 20260509013509 | 7 | 152 | 3.2 | 6.4 | 0.00 | 0.25 | 0.25 | 93 | 1012.0 |
| 20260509012508 | 7 | 118 | 3.2 | 4.8 | 0.00 | 0.25 | 0.25 | 93 | 1012.1 |
| 20260509011502 | 7 | 134 | 6.4 | 6.4 | 0.00 | 0.25 | 0.25 | 92 | 1011.7 |
| 20260509010457 | 8 | 104 | 1.6 | 8.0 | 0.00 | 0.25 | 0.25 | 91 | 1011.9 |
| 20260509005452 | 8 | 179 | 6.4 | 8.0 | 0.00 | 0.25 | 0.25 | 91 | 1011.8 |
| 20260509004448 | 8 | 142 | 1.6 | 6.4 | 0.00 | 0.25 | 0.25 | 90 | 1011.5 |
| 20260509003444 | 8 | 200 | 4.8 | 8.0 | 0.00 | 0.25 | 0.25 | 90 | 1011.6 |
| 20260509002444 | 8 | 92 | 1.6 | 6.4 | 0.00 | 0.25 | 0.25 | 89 | 1011.3 |
| 20260509001443 | 8 | 113 | 1.6 | 3.2 | 0.00 | 0.25 | 0.25 | 88 | 1011.3 |
| 20260509000440 | 8 | 190 | 3.2 | 6.4 | 0.00 | 0.25 | 0.25 | 87 | 1011.1 |
| 20260508235438 | 9 | 167 | 3.2 | 4.8 | 0.00 | 0.25 | 0.25 | 85 | 1010.9 |
| 20260508234437 | 10 | 153 | 3.2 | 6.4 | 0.00 | 0.25 | 0.25 | 83 | 1010.9 |
| 20260508233434 | 10 | 131 | 3.2 | 14.5 | 0.00 | 0.25 | 0.25 | 81 | 1011.2 |
| 20260508232433 | 10 | 154 | 0.0 | 3.2 | 0.00 | 0.25 | 0.25 | 81 | 1011.0 |
| 20260508231433 | 10 | 157 | 1.6 | 6.4 | 0.00 | 0.25 | 0.25 | 81 | 1011.0 |
| 20260508230432 | 10 | 196 | 9.7 | 9.7 | 0.00 | 0.25 | 0.25 | 80 | 1011.0 |
| 20260508225432 | 10 | 133 | 1.6 | 4.8 | 0.00 | 0.25 | 0.25 | 80 | 1010.8 |
| 20260508224427 | 11 | 182 | 3.2 | 8.0 | 0.00 | 0.25 | 0.25 | 79 | 1010.6 |
| 20260508223422 | 11 | 84 | 4.8 | 4.8 | 0.00 | 0.25 | 0.25 | 77 | 1010.9 |
| 20260508222422 | 10 | 207 | 4.8 | 8.0 | 0.00 | 0.25 | 0.25 | 78 | 1010.7 |
| 20260508221420 | 10 | 184 | 6.4 | 9.7 | 0.00 | 0.25 | 0.25 | 77 | 1010.9 |
| 20260508220419 | 11 | 135 | 9.7 | 11.3 | 0.00 | 0.25 | 0.25 | 73 | 1010.7 |
| 20260508215418 | 11 | 137 | 1.6 | 8.0 | 0.00 | 0.25 | 0.25 | 78 | 1011.0 |
| 20260508214419 | 11 | 186 | 8.0 | 8.0 | 0.00 | 0.25 | 0.25 | 75 | 1010.9 |
| 20260508213418 | 11 | 154 | 3.2 | 8.0 | 0.00 | 0.25 | 0.25 | 72 | 1010.8 |
| 20260508212416 | 11 | 134 | 4.8 | 6.4 | 0.00 | 0.25 | 0.25 | 77 | 1011.1 |
| 20260508211413 | 10 | 136 | 3.2 | 8.0 | 0.00 | 0.25 | 0.25 | 79 | 1010.9 |
| 20260508210413 | 10 | 137 | 3.2 | 11.3 | 0.00 | 0.25 | 0.25 | 83 | 1011.2 |
| 20260508205413 | 9 | 153 | 3.2 | 9.7 | 0.00 | 0.25 | 0.25 | 87 | 1011.5 |
| 20260508204412 | 9 | 126 | 3.2 | 8.0 | 0.05 | 0.25 | 0.25 | 89 | 1011.6 |
| 20260508203410 | 8 | 216 | 3.2 | 4.8 | 0.05 | 0.23 | 0.23 | 86 | 1011.8 |
| 20260508202409 | 9 | 7 | 3.2 | 4.8 | 0.05 | 0.23 | 0.23 | 83 | 1011.8 |
| 20260508201408 | 10 | 301 | 0.0 | 1.6 | 0.00 | 0.23 | 0.23 | 78 | 1011.4 |
| 20260508200408 | 10 | 27 | 1.6 | 6.4 | 0.00 | 0.23 | 0.23 | 72 | 1011.2 |
| 20260508195406 | 10 | 57 | 4.8 | 8.0 | 0.05 | 0.23 | 0.23 | 70 | 1011.4 |
| 20260508194406 | 11 | 0 | 1.6 | 6.4 | 0.00 | 0.20 | 0.20 | 70 | 1011.1 |
| 20260508193405 | 12 | 60 | 8.0 | 9.7 | 0.00 | 0.20 | 0.20 | 67 | 1011.4 |
| 20260508192404 | 11 | 330 | 4.8 | 6.4 | 0.00 | 0.20 | 0.20 | 71 | 1011.5 |
| 20260508191359 | 10 | 311 | 1.6 | 4.8 | 0.00 | 0.20 | 0.20 | 72 | 1011.7 |
| 20260508190358 | 10 | 55 | 3.2 | 6.4 | 0.00 | 0.20 | 0.20 | 76 | 1011.8 |
| 20260508185358 | 10 | 327 | 6.4 | 14.5 | 0.00 | 0.20 | 0.20 | 77 | 1011.8 |
| 20260508184353 | 10 | 139 | 0.0 | 8.0 | 0.00 | 0.20 | 0.20 | 75 | 1011.7 |
| 20260508183351 | 10 | 348 | 6.4 | 9.7 | 0.00 | 0.20 | 0.20 | 81 | 1011.9 |
| 20260508182350 | 10 | 96 | 8.0 | 8.0 | 0.00 | 0.20 | 0.20 | 81 | 1012.0 |
| 20260508181349 | 10 | 36 | 4.8 | 12.9 | 0.00 | 0.20 | 0.20 | 85 | 1012.3 |
| 20260508180348 | 10 | 257 | 4.8 | 4.8 | 0.00 | 0.20 | 0.20 | 86 | 1012.0 |
| 20260508175347 | 8 | 338 | 6.4 | 12.9 | 0.05 | 0.20 | 0.20 | 90 | 1012.5 |
| 20260508174342 | 8 | 282 | 9.7 | 9.7 | 0.00 | 0.20 | 0.20 | 84 | 1012.4 |
| 20260508173342 | 10 | 275 | 6.4 | 8.0 | 0.00 | 0.20 | 0.20 | 83 | 1012.4 |
| 20260508172341 | 9 | 290 | 0.0 | 14.5 | 0.00 | 0.20 | 0.20 | 87 | 1012.1 |
| 20260508171339 | 8 | 291 | 6.4 | 8.0 | 0.00 | 0.20 | 0.20 | 91 | 1012.1 |
| 20260508170334 | 7 | 350 | 4.8 | 6.4 | 0.05 | 0.20 | 0.20 | 95 | 1012.6 |
| 20260508165333 | 7 | 8 | 3.2 | 8.0 | 0.00 | 0.18 | 0.18 | 97 | 1012.7 |
| 20260508164331 | 6 | 19 | 4.8 | 8.0 | 0.00 | 0.18 | 0.18 | 97 | 1012.6 |
| 20260508163327 | 6 | 356 | 6.4 | 6.4 | 0.00 | 0.18 | 0.18 | 97 | 1012.6 |
| 20260508162325 | 6 | 6 | 1.6 | 4.8 | 0.05 | 0.18 | 0.18 | 97 | 1012.6 |
| 20260508161325 | 6 | 19 | 3.2 | 4.8 | 0.48 | 0.18 | 0.18 | 95 | 1012.8 |
| 20260508160322 | 7 | 292 | 12.9 | 17.7 | 0.13 | 0.10 | 0.10 | 87 | 1012.6 |
| 20260508155321 | 7 | 10 | 4.8 | 8.0 | 0.00 | 0.08 | 0.08 | 83 | 1012.0 |
| 20260508154315 | 9 | 278 | 3.2 | 6.4 | 0.00 | 0.08 | 0.08 | 81 | 1011.8 |
| 20260508153314 | 8 | 309 | 9.7 | 9.7 | 0.00 | 0.08 | 0.08 | 85 | 1011.8 |
| 20260508152312 | 7 | 29 | 3.2 | 6.4 | 0.00 | 0.08 | 0.08 | 85 | 1011.7 |
| 20260508151311 | 7 | 309 | 6.4 | 14.5 | 0.00 | 0.08 | 0.08 | 84 | 1012.1 |
| 20260508150310 | 7 | 327 | 6.4 | 16.1 | 0.00 | 0.08 | 0.08 | 84 | 1012.1 |
| 20260508145308 | 8 | 220 | 0.0 | 9.7 | 0.00 | 0.08 | 0.08 | 86 | 1012.0 |
| 20260508144303 | 8 | 119 | 6.4 | 14.5 | 0.00 | 0.08 | 0.08 | 83 | 1012.1 |
| 20260508143303 | 7 | 215 | 3.2 | 11.3 | 0.00 | 0.08 | 0.08 | 88 | 1012.1 |
| 20260508142306 | 7 | 304 | 3.2 | 16.1 | 0.00 | 0.08 | 0.08 | 88 | 1012.0 |
| 20260508141302 | 6 | 87 | 1.6 | 8.0 | 0.00 | 0.08 | 0.08 | 93 | 1012.3 |
| 20260508140302 | 6 | 208 | 8.0 | 8.0 | 0.00 | 0.08 | 0.08 | 93 | 1012.0 |
| 20260508135300 | 5 | 263 | 1.6 | 4.8 | 0.00 | 0.08 | 0.08 | 94 | 1012.4 |
| 20260508134259 | 5 | 202 | 8.0 | 11.3 | 0.00 | 0.08 | 0.08 | 96 | 1012.1 |
| 20260508133259 | 4 | 178 | 8.0 | 9.7 | 0.00 | 0.08 | 0.08 | 99 | 1012.1 |
| 20260508132300 | 3 | 95 | 4.8 | 9.7 | 0.00 | 0.08 | 0.08 | 99 | 1012.5 |
| 20260508131257 | 3 | 170 | 4.8 | 8.0 | 0.00 | 0.08 | 0.08 | 99 | 1012.7 |
| 20260508130258 | 3 | 103 | 3.2 | 6.4 | 0.05 | 0.08 | 0.08 | 99 | 1012.6 |
| 20260508125255 | 3 | 112 | 4.8 | 6.4 | 0.05 | 0.08 | 0.08 | 99 | 1012.8 |
| 20260508124250 | 3 | 164 | 1.6 | 6.4 | 0.00 | 0.05 | 0.05 | 99 | 1012.4 |